Time,TemperatureF,DewpointF,PressureIn,WindDirection,WindDirectionDegrees,WindSpeedMPH,WindSpeedGustMPH,Humidity,HourlyPrecipIn,Conditions,Clouds,dailyrainin,SoftwareType,DateUTC
2013-05-06 00:02:00,59.0,44.0,29.99,ENE,61,1.0,3.0,57,0.00,,,0.00,,2013-05-06 04:02:00,
2013-05-06 00:12:00,59.0,44.0,29.99,ENE,61,1.0,3.0,57,0.00,,,0.00,,2013-05-06 04:12:00,
2013-05-06 00:23:00,59.0,45.0,29.99,NNE,30,2.0,4.0,60,0.00,,,0.00,,2013-05-06 04:23:00,
2013-05-06 00:32:00,58.0,45.0,29.99,NE,49,3.0,6.0,62,0.00,,,0.00,,2013-05-06 04:32:00,
2013-05-06 00:43:00,58.0,45.0,29.99,NE,49,3.0,6.0,62,0.00,,,0.00,,2013-05-06 04:43:00,
2013-05-06 00:52:00,58.0,46.0,29.99,NNE,26,3.0,5.0,64,0.00,,,0.00,,2013-05-06 04:52:00,
2013-05-06 01:02:00,57.0,46.0,29.99,North,357,3.0,7.0,66,0.00,,,0.00,,2013-05-06 05:02:00,
2013-05-06 01:12:00,57.0,46.0,29.99,North,357,3.0,7.0,66,0.00,,,0.00,,2013-05-06 05:12:00,
2013-05-06 01:22:00,57.0,47.0,29.99,NNE,26,3.0,6.0,68,0.00,,,0.00,,2013-05-06 05:22:00,
2013-05-06 01:32:00,56.0,46.0,29.99,NE,46,2.0,5.0,69,0.00,,,0.00,,2013-05-06 05:32:00,
2013-05-06 01:42:00,56.0,46.0,29.99,NE,46,2.0,5.0,69,0.00,,,0.00,,2013-05-06 05:42:00,
2013-05-06 01:52:00,56.0,46.0,29.98,East,93,1.0,7.0,70,0.00,,,0.00,,2013-05-06 05:52:00,
2013-05-06 02:02:00,55.0,46.0,29.98,NE,53,1.0,5.0,71,0.00,,,0.00,,2013-05-06 06:02:00,
2013-05-06 02:12:00,55.0,46.0,29.98,NE,53,1.0,5.0,71,0.00,,,0.00,,2013-05-06 06:12:00,
2013-05-06 02:21:00,55.0,46.0,29.98,ENE,65,0.0,4.0,71,0.00,,,0.00,,2013-05-06 06:21:00,
2013-05-06 02:32:00,54.0,45.0,29.98,NE,40,1.0,4.0,71,0.00,,,0.00,,2013-05-06 06:32:00,
2013-05-06 02:42:00,54.0,45.0,29.98,NE,40,1.0,4.0,71,0.00,,,0.00,,2013-05-06 06:42:00,
2013-05-06 02:52:00,54.0,45.0,29.98,NNE,23,0.0,2.0,72,0.00,,,0.00,,2013-05-06 06:52:00,
2013-05-06 03:01:00,53.0,45.0,29.98,NE,56,0.0,2.0,74,0.00,,,0.00,,2013-05-06 07:01:00,
2013-05-06 03:11:00,53.0,45.0,29.98,NE,56,0.0,2.0,74,0.00,,,0.00,,2013-05-06 07:11:00,
2013-05-06 03:22:00,53.0,45.0,29.98,ENE,75,1.0,3.0,74,0.00,,,0.00,,2013-05-06 07:22:00,
2013-05-06 03:32:00,52.0,44.0,29.97,NE,43,1.0,3.0,75,0.00,,,0.00,,2013-05-06 07:32:00,
2013-05-06 03:42:00,52.0,44.0,29.97,NE,43,1.0,3.0,75,0.00,,,0.00,,2013-05-06 07:42:00,
2013-05-06 03:52:00,53.0,44.0,29.97,NE,47,1.0,3.0,72,0.00,,,0.00,,2013-05-06 07:52:00,
2013-05-06 04:02:00,52.0,44.0,29.97,ENE,62,1.0,4.0,74,0.00,,,0.00,,2013-05-06 08:02:00,
2013-05-06 04:12:00,52.0,44.0,29.97,ENE,62,1.0,4.0,74,0.00,,,0.00,,2013-05-06 08:12:00,
2013-05-06 04:22:00,51.0,43.0,29.97,NE,39,0.0,3.0,75,0.00,,,0.00,,2013-05-06 08:22:00,
2013-05-06 04:32:00,51.0,44.0,29.97,NE,40,0.0,3.0,76,0.00,,,0.00,,2013-05-06 08:32:00,
2013-05-06 04:42:00,51.0,44.0,29.97,NE,40,0.0,3.0,76,0.00,,,0.00,,2013-05-06 08:42:00,
2013-05-06 04:52:00,51.0,44.0,29.97,ENE,63,1.0,4.0,77,0.00,,,0.00,,2013-05-06 08:52:00,
2013-05-06 05:01:00,51.0,44.0,29.97,ENE,72,1.0,3.0,78,0.00,,,0.00,,2013-05-06 09:01:00,
2013-05-06 05:11:00,51.0,44.0,29.97,ENE,72,1.0,3.0,78,0.00,,,0.00,,2013-05-06 09:11:00,
2013-05-06 05:22:00,50.0,44.0,29.97,ENE,77,0.0,1.0,79,0.00,,,0.00,,2013-05-06 09:22:00,
2013-05-06 05:33:00,50.0,44.0,29.97,ENE,67,0.0,2.0,80,0.00,,,0.00,,2013-05-06 09:33:00,
2013-05-06 05:43:00,50.0,44.0,29.97,ENE,67,0.0,2.0,80,0.00,,,0.00,,2013-05-06 09:43:00,
2013-05-06 05:53:00,50.0,44.0,29.97,ENE,75,0.0,0.0,81,0.00,,,0.00,,2013-05-06 09:53:00,
2013-05-06 06:02:00,50.0,44.0,29.97,ENE,61,0.0,1.0,81,0.00,,,0.00,,2013-05-06 10:02:00,
2013-05-06 06:12:00,50.0,44.0,29.97,ENE,61,0.0,1.0,81,0.00,,,0.00,,2013-05-06 10:12:00,
2013-05-06 06:22:00,50.0,44.0,29.98,NE,51,0.0,2.0,81,0.00,,,0.00,,2013-05-06 10:22:00,
2013-05-06 06:33:00,50.0,44.0,29.98,ENE,72,0.0,2.0,79,0.00,,,0.00,,2013-05-06 10:33:00,
2013-05-06 06:42:00,50.0,44.0,29.98,ENE,72,0.0,2.0,79,0.00,,,0.00,,2013-05-06 10:42:00,
2013-05-06 06:52:00,49.0,44.0,29.98,ENE,70,0.0,0.0,82,0.00,,,0.00,,2013-05-06 10:52:00,
2013-05-06 07:02:00,50.0,43.0,29.99,East,80,0.0,4.0,78,0.00,,,0.00,,2013-05-06 11:02:00,
2013-05-06 07:12:00,50.0,43.0,29.99,East,80,0.0,4.0,78,0.00,,,0.00,,2013-05-06 11:12:00,
2013-05-06 07:22:00,50.0,43.0,29.99,ENE,68,0.0,0.0,77,0.00,,,0.00,,2013-05-06 11:22:00,
2013-05-06 07:32:00,51.0,44.0,30.00,NE,51,0.0,0.0,76,0.00,,,0.00,,2013-05-06 11:32:00,
2013-05-06 07:42:00,51.0,44.0,30.00,NE,51,0.0,0.0,76,0.00,,,0.00,,2013-05-06 11:42:00,
2013-05-06 07:52:00,52.0,44.0,30.00,NE,44,0.0,3.0,74,0.00,,,0.00,,2013-05-06 11:52:00,
2013-05-06 08:01:00,52.0,44.0,30.01,NE,34,0.0,2.0,74,0.00,,,0.00,,2013-05-06 12:01:00,
2013-05-06 08:12:00,52.0,44.0,30.01,NE,34,0.0,2.0,74,0.00,,,0.00,,2013-05-06 12:12:00,
2013-05-06 08:22:00,53.0,45.0,30.01,NE,54,0.0,0.0,74,0.00,,,0.00,,2013-05-06 12:22:00,
2013-05-06 08:32:00,54.0,46.0,30.01,NE,53,0.0,0.0,73,0.00,,,0.00,,2013-05-06 12:32:00,
2013-05-06 08:42:00,54.0,46.0,30.01,NE,53,0.0,0.0,73,0.00,,,0.00,,2013-05-06 12:42:00,
2013-05-06 08:52:00,56.0,46.0,30.01,ENE,75,0.0,2.0,70,0.00,,,0.00,,2013-05-06 12:52:00,
2013-05-06 09:01:00,57.0,45.0,30.01,ENE,68,1.0,4.0,65,0.00,,,0.00,,2013-05-06 13:01:00,
2013-05-06 09:11:00,57.0,45.0,30.01,ENE,68,1.0,4.0,65,0.00,,,0.00,,2013-05-06 13:11:00,
2013-05-06 09:21:00,59.0,46.0,30.01,NE,49,0.0,5.0,62,0.00,,,0.00,,2013-05-06 13:21:00,
2013-05-06 09:32:00,60.0,44.0,30.02,ESE,118,1.0,3.0,56,0.00,,,0.00,,2013-05-06 13:32:00,
2013-05-06 09:42:00,60.0,44.0,30.02,ESE,118,1.0,3.0,56,0.00,,,0.00,,2013-05-06 13:42:00,
2013-05-06 09:52:00,61.0,44.0,30.02,East,82,2.0,4.0,53,0.00,,,0.00,,2013-05-06 13:52:00,
2013-05-06 10:01:00,63.0,45.0,30.02,East,82,2.0,5.0,51,0.00,,,0.00,,2013-05-06 14:01:00,
2013-05-06 10:11:00,63.0,45.0,30.02,East,82,2.0,5.0,51,0.00,,,0.00,,2013-05-06 14:11:00,
2013-05-06 10:21:00,63.0,45.0,30.02,ESE,111,1.0,5.0,52,0.00,,,0.00,,2013-05-06 14:21:00,
2013-05-06 10:32:00,64.0,43.0,30.02,NW,304,2.0,3.0,47,0.00,,,0.00,,2013-05-06 14:32:00,
2013-05-06 10:42:00,64.0,43.0,30.02,NW,304,2.0,3.0,47,0.00,,,0.00,,2013-05-06 14:42:00,
2013-05-06 10:52:00,66.0,45.0,30.02,NNW,347,4.0,7.0,47,0.00,,,0.00,,2013-05-06 14:52:00,
2013-05-06 11:01:00,64.0,46.0,30.02,ENE,57,3.0,8.0,52,0.00,,,0.00,,2013-05-06 15:01:00,
2013-05-06 11:11:00,64.0,46.0,30.02,ENE,57,3.0,8.0,52,0.00,,,0.00,,2013-05-06 15:11:00,
2013-05-06 11:21:00,64.0,47.0,30.03,NE,46,4.0,7.0,53,0.00,,,0.00,,2013-05-06 15:21:00,
2013-05-06 11:33:00,64.0,47.0,30.03,ENE,61,2.0,6.0,53,0.00,,,0.00,,2013-05-06 15:33:00,
2013-05-06 11:42:00,64.0,47.0,30.03,ENE,61,2.0,6.0,53,0.00,,,0.00,,2013-05-06 15:42:00,
2013-05-06 11:53:00,65.0,47.0,30.02,ESE,117,1.0,4.0,53,0.00,,,0.00,,2013-05-06 15:53:00,
2013-05-06 12:03:00,65.0,46.0,30.02,NNE,30,4.0,7.0,51,0.00,,,0.00,,2013-05-06 16:03:00,
2013-05-06 12:13:00,65.0,46.0,30.02,NNE,30,4.0,7.0,51,0.00,,,0.00,,2013-05-06 16:13:00,
2013-05-06 12:23:00,65.0,47.0,30.02,ESE,110,3.0,11.0,53,0.00,,,0.00,,2013-05-06 16:23:00,
2013-05-06 12:33:00,65.0,46.0,30.01,NNE,13,4.0,8.0,50,0.00,,,0.00,,2013-05-06 16:33:00,
2013-05-06 12:42:00,65.0,46.0,30.01,NNE,13,4.0,8.0,50,0.00,,,0.00,,2013-05-06 16:42:00,
2013-05-06 12:52:00,66.0,48.0,30.01,ESE,115,2.0,6.0,52,0.00,,,0.00,,2013-05-06 16:52:00,
2013-05-06 13:03:00,66.0,47.0,30.01,NE,36,3.0,9.0,50,0.00,,,0.00,,2013-05-06 17:03:00,
2013-05-06 13:12:00,66.0,47.0,30.01,NE,36,3.0,9.0,50,0.00,,,0.00,,2013-05-06 17:12:00,
2013-05-06 13:23:00,65.0,45.0,30.01,NE,36,4.0,10.0,48,0.00,,,0.00,,2013-05-06 17:23:00,
2013-05-06 13:31:00,65.0,46.0,30.00,NNE,22,4.0,8.0,50,0.00,,,0.00,,2013-05-06 17:31:00,
2013-05-06 13:42:00,65.0,46.0,30.00,NNE,22,4.0,8.0,50,0.00,,,0.00,,2013-05-06 17:42:00,
2013-05-06 13:52:00,65.0,45.0,30.00,ENE,63,5.0,11.0,49,0.00,,,0.00,,2013-05-06 17:52:00,
2013-05-06 14:01:00,66.0,46.0,30.00,ENE,58,3.0,8.0,48,0.00,,,0.00,,2013-05-06 18:01:00,
2013-05-06 14:12:00,66.0,46.0,30.00,ENE,58,3.0,8.0,48,0.00,,,0.00,,2013-05-06 18:12:00,
2013-05-06 14:22:00,65.0,45.0,30.00,NE,39,7.0,11.0,49,0.00,,,0.00,,2013-05-06 18:22:00,
2013-05-06 14:32:00,68.0,47.0,30.00,South,180,2.0,6.0,47,0.00,,,0.00,,2013-05-06 18:32:00,
2013-05-06 14:43:00,68.0,47.0,30.00,South,180,2.0,6.0,47,0.00,,,0.00,,2013-05-06 18:43:00,
2013-05-06 14:52:00,68.0,47.0,30.00,ENE,72,3.0,7.0,47,0.00,,,0.00,,2013-05-06 18:52:00,
2013-05-06 15:01:00,66.0,47.0,29.99,SE,128,2.0,11.0,51,0.00,,,0.00,,2013-05-06 19:01:00,
2013-05-06 15:11:00,66.0,47.0,29.99,SE,128,2.0,11.0,51,0.00,,,0.00,,2013-05-06 19:11:00,
2013-05-06 15:22:00,67.0,47.0,29.99,East,86,2.0,10.0,48,0.00,,,0.00,,2013-05-06 19:22:00,
2013-05-06 15:32:00,68.0,48.0,29.99,NE,39,4.0,11.0,48,0.00,,,0.00,,2013-05-06 19:32:00,
2013-05-06 15:42:00,68.0,48.0,29.99,NE,39,4.0,11.0,48,0.00,,,0.00,,2013-05-06 19:42:00,
2013-05-06 15:52:00,67.0,47.0,29.98,NNE,23,4.0,12.0,49,0.00,,,0.00,,2013-05-06 19:52:00,
2013-05-06 16:02:00,68.0,49.0,29.98,ESE,118,3.0,6.0,50,0.00,,,0.00,,2013-05-06 20:02:00,
2013-05-06 16:11:00,68.0,49.0,29.98,ESE,118,3.0,6.0,50,0.00,,,0.00,,2013-05-06 20:11:00,
2013-05-06 16:21:00,68.0,48.0,29.98,NE,42,2.0,7.0,48,0.00,,,0.00,,2013-05-06 20:21:00,
2013-05-06 16:32:00,67.0,47.0,29.97,East,100,4.0,11.0,49,0.00,,,0.00,,2013-05-06 20:32:00,
2013-05-06 16:42:00,67.0,47.0,29.97,East,100,4.0,11.0,49,0.00,,,0.00,,2013-05-06 20:42:00,
2013-05-06 16:52:00,68.0,49.0,29.97,SSE,162,2.0,9.0,50,0.00,,,0.00,,2013-05-06 20:52:00,
2013-05-06 17:01:00,67.0,49.0,29.96,ESE,102,1.0,9.0,52,0.00,,,0.00,,2013-05-06 21:01:00,
2013-05-06 17:11:00,67.0,49.0,29.96,ESE,102,1.0,9.0,52,0.00,,,0.00,,2013-05-06 21:11:00,
2013-05-06 17:21:00,67.0,48.0,29.96,East,91,2.0,5.0,50,0.00,,,0.00,,2013-05-06 21:21:00,
2013-05-06 17:33:00,67.0,48.0,29.96,NNE,22,2.0,8.0,50,0.00,,,0.00,,2013-05-06 21:33:00,
2013-05-06 17:43:00,67.0,48.0,29.96,NNE,22,2.0,8.0,50,0.00,,,0.00,,2013-05-06 21:43:00,
2013-05-06 17:53:00,67.0,47.0,29.96,NE,50,1.0,5.0,49,0.00,,,0.00,,2013-05-06 21:53:00,
2013-05-06 18:03:00,67.0,47.0,29.96,NNE,25,4.0,8.0,49,0.00,,,0.00,,2013-05-06 22:03:00,
2013-05-06 18:12:00,67.0,47.0,29.96,NNE,25,4.0,8.0,49,0.00,,,0.00,,2013-05-06 22:12:00,
2013-05-06 18:22:00,67.0,48.0,29.96,East,98,2.0,8.0,50,0.00,,,0.00,,2013-05-06 22:22:00,
2013-05-06 18:33:00,65.0,47.0,29.96,NNE,31,2.0,9.0,52,0.00,,,0.00,,2013-05-06 22:33:00,
2013-05-06 18:45:00,65.0,47.0,29.96,NNE,31,2.0,9.0,52,0.00,,,0.00,,2013-05-06 22:45:00,
2013-05-06 18:52:00,65.0,48.0,29.96,ENE,78,1.0,5.0,54,0.00,,,0.00,,2013-05-06 22:52:00,
2013-05-06 19:03:00,64.0,47.0,29.96,ESE,105,1.0,5.0,54,0.00,,,0.00,,2013-05-06 23:03:00,
2013-05-06 19:12:00,64.0,47.0,29.96,ESE,105,1.0,5.0,54,0.00,,,0.00,,2013-05-06 23:12:00,
2013-05-06 19:22:00,63.0,46.0,29.96,SE,127,2.0,5.0,54,0.00,,,0.00,,2013-05-06 23:22:00,
2013-05-06 19:32:00,63.0,47.0,29.96,ENE,71,1.0,4.0,55,0.00,,,0.00,,2013-05-06 23:32:00,
2013-05-06 19:42:00,63.0,47.0,29.96,ENE,71,1.0,4.0,55,0.00,,,0.00,,2013-05-06 23:42:00,
2013-05-06 19:52:00,62.0,46.0,29.96,ENE,76,2.0,3.0,56,0.00,,,0.00,,2013-05-06 23:52:00,
2013-05-06 20:01:00,62.0,47.0,29.96,ESE,103,1.0,8.0,57,0.00,,,0.00,,2013-05-07 00:01:00,
2013-05-06 20:12:00,62.0,47.0,29.96,ESE,103,1.0,8.0,57,0.00,,,0.00,,2013-05-07 00:12:00,
2013-05-06 20:21:00,61.0,45.0,29.97,SW,214,1.0,5.0,56,0.00,,,0.00,,2013-05-07 00:21:00,
2013-05-06 20:32:00,61.0,46.0,29.97,ENE,75,0.0,2.0,58,0.00,,,0.00,,2013-05-07 00:32:00,
2013-05-06 20:42:00,61.0,46.0,29.97,ENE,75,0.0,2.0,58,0.00,,,0.00,,2013-05-07 00:42:00,
2013-05-06 20:52:00,60.0,45.0,29.98,ESE,117,0.0,2.0,58,0.00,,,0.00,,2013-05-07 00:52:00,
2013-05-06 21:01:00,60.0,45.0,29.98,ESE,120,0.0,3.0,58,0.00,,,0.00,,2013-05-07 01:01:00,
2013-05-06 21:11:00,60.0,45.0,29.98,ESE,120,0.0,3.0,58,0.00,,,0.00,,2013-05-07 01:11:00,
2013-05-06 21:21:00,60.0,45.0,29.98,ESE,110,0.0,5.0,57,0.00,,,0.00,,2013-05-07 01:21:00,
2013-05-06 21:32:00,59.0,44.0,29.98,ESE,112,1.0,2.0,57,0.00,,,0.00,,2013-05-07 01:32:00,
2013-05-06 21:42:00,59.0,44.0,29.98,ESE,112,1.0,2.0,57,0.00,,,0.00,,2013-05-07 01:42:00,
2013-05-06 21:53:00,59.0,45.0,29.98,SE,143,1.0,4.0,59,0.00,,,0.00,,2013-05-07 01:53:00,
2013-05-06 22:02:00,59.0,46.0,29.98,East,101,0.0,2.0,61,0.00,,,0.00,,2013-05-07 02:02:00,
2013-05-06 22:11:00,59.0,46.0,29.98,East,101,0.0,2.0,61,0.00,,,0.00,,2013-05-07 02:11:00,
2013-05-06 22:22:00,58.0,45.0,29.99,ESE,113,0.0,4.0,63,0.00,,,0.00,,2013-05-07 02:22:00,
2013-05-06 22:32:00,57.0,45.0,30.00,ESE,109,1.0,2.0,64,0.00,,,0.00,,2013-05-07 02:32:00,
2013-05-06 22:42:00,57.0,45.0,30.00,ESE,109,1.0,2.0,64,0.00,,,0.00,,2013-05-07 02:42:00,
2013-05-06 22:52:00,57.0,46.0,30.00,ESE,120,0.0,3.0,66,0.00,,,0.00,,2013-05-07 02:52:00,
2013-05-06 23:02:00,56.0,45.0,30.00,ESE,119,0.0,0.0,67,0.00,,,0.00,,2013-05-07 03:02:00,
2013-05-06 23:11:00,56.0,45.0,30.00,ESE,119,0.0,0.0,67,0.00,,,0.00,,2013-05-07 03:11:00,
2013-05-06 23:22:00,55.0,45.0,30.00,ENE,74,0.0,0.0,69,0.00,,,0.00,,2013-05-07 03:22:00,
2013-05-06 23:32:00,55.0,45.0,29.99,ENE,74,0.0,0.0,69,0.00,,,0.00,,2013-05-07 03:32:00,
2013-05-06 23:43:00,55.0,45.0,29.99,ENE,74,0.0,0.0,69,0.00,,,0.00,,2013-05-07 03:43:00,
2013-05-06 23:53:00,56.0,45.0,29.99,NE,39,1.0,2.0,66,0.00,,,0.00,,2013-05-07 03:53:00,